[ hide orbit diagram ]
For accurate long-term ephemerides, please instead use our Horizons system.This orbit viewer was implemented using two-body methods, and hence should not be used for determining accurate long-term trajectories (over several years or decades) or planetary encounter circumstances.
Orbital Elements at Epoch 2459000.5 (2020-May-31.0) TDB
Reference: JPL 24 (heliocentric ecliptic J2000)
Element | Value | Uncertainty (1-sigma) | Units |
e | .1953023595125126 | 4.24e-08 | |
a | 2.365602730053447 | 8.4519e-09 | au |
q | 1.903594935204768 | 1.0195e-07 | au |
i | 2.539055863745169 | 4.3858e-06 | deg |
node | 164.923023586761 | 7.9324e-05 | deg |
peri | 146.3338149001717 | 8.0126e-05 | deg |
M | 343.4642700313478 | 8.9854e-06 | deg |
tp | 2459061.542458519869 (2020-Jul-31.04245852) | 3.3063e-05 | TDB |
period | 1328.957663726537 3.64 | 7.1222e-06 1.95e-08 | d yr |
n | .2708889905420479 | 1.4518e-09 | deg/d |
Q | 2.827610524902127 | 1.0103e-08 | au |
|
| | Orbit Determination Parameters
Additional Information
|
[ show covariance matrix ]
Physical Parameter Table
Parameter |
Symbol |
Value |
Units |
Sigma |
Reference |
Notes |
absolute magnitude |
H |
16.6 |
|
n/a |
MPO432334 |
|
|
78441 (2002 RQ13) Discovered 2002-Sep-04 by LONEOS at Anderson Mesa |
Reference: 20040415/Numbers.arc | Last Updated: 2004-04-19 |
|
[ show close-approach data ]
|